Location: Meanaryar
(48.4161°N, 4.7315°W)
Time: 13:51:12
(UTC+00:00)

Cosmos 1092 Rocket - Pass Details

Date: 17 January 2021
Orbit: 954 x 995 km, 83.0° (Epoch: 01 March)

Event Time Altitude Azimuth Distance (km) Brightness Sun altitude
Rises 07:18:56 0° 347° (NNW) 3,646 6.6 -7.5°
Reaches altitude 10° 07:21:30 10° 342° (NNW) 2,695 5.9 -7.1°
Maximum altitude 07:27:24 51° 269° (W) 1,193 4.2 -6.2°
Drops below altitude 10° 07:33:17 10° 195° (SSW) 2,684 6.5 -5.3°
Sets 07:35:50 0° 191° (S) 3,630 7.2 -4.9°
